星链-1445 (STARLINK-1445 )

导读 | 豆包AI

STARLINK-1445是美国太空探索技术公司星链(Starlink)星座的卫星,由美国于2020年6月4日发射。作为星链低轨互联网星座组成部分,它主要为全球提供高速卫星互联网接入服务,服务覆盖偏远地区,也支持军事等专项网络应用,是星链大规模组网进程中的一颗运营卫星。

基本信息
目录编号:
45662
目录名称:
STARLINK-1445
国际标识:
2020-035F
轨道中心:
EARTH
卫星名称:
星链-1445
卫星全名:
星链-1445 (STARLINK-1445 )
卫星状态:
已陨落 最后检测时间 2024-12-18
发射日期:
2020-06-04 UTC
国别 :
美国 (US)
星等 :
--
轨道信息
数据来源 国际轨道数据
星历时间: 2024-12-18T19:58:20+0800
轨道信息已过期522天
半长轴: 6556.947km
偏心率: 0.0004506
轨道倾角: 53.038°
近地点辐角 233.448°
升交点赤经 237.331°
平近点角 264.804°
近地点: 175.857km
远地点: 181.767km
周期: 88.067分钟
每日圈数: 16.351225
详细信息
固有亮度:
5
最大亮度:
2.5
卫星平台:
Starlink V1.0
覆盖范围:
全球
运营商:
太空探索技术公司
运营商所在国:
美国
制造商(研发单位):
太空探索技术公司
制造商所在国:
美国
使用方式:
暂无
卫星简介
星链(Starlink)计划是由太空探索技术公司(SpaceX)提出的一个巨型低轨卫星互联网星座项目,计划在2019年至2024年间在太空搭建由约1.2万颗卫星组成的“星链”网络,其中1584颗将部署在地球上空550千米处的近地轨道,并从2020年开始工作。该卫星仍在工作。